TimePDT,TemperatureF,Dew PointF,Humidity,Sea Level PressureIn,VisibilityMPH,Wind Direction,Wind SpeedMPH,Gust SpeedMPH,PrecipitationIn,Events,Conditions,WindDirDegrees,DateUTC
12:58 AM,66.9,66.9,100,29.89,5.0,South,2.3,-,N/A,,Clear,190,2013-08-29 07:58:00
1:23 AM,68.0,66.2,94,29.88,3.0,Calm,Calm,-,N/A,,Clear,0,2013-08-29 08:23:00
1:28 AM,68.0,66.2,94,29.88,2.5,SE,2.3,-,N/A,,Clear,130,2013-08-29 08:28:00
1:48 AM,68.0,66.2,94,29.88,3.0,SE,3.5,-,N/A,,Clear,140,2013-08-29 08:48:00
1:58 AM,68.0,66.4,95,29.89,5.0,Calm,Calm,-,N/A,,Clear,0,2013-08-29 08:58:00
2:58 AM,65.8,65.8,100,29.89,8.0,West,1.2,-,N/A,,Clear,280,2013-08-29 09:58:00
3:58 AM,65.7,65.7,100,29.89,7.0,South,2.3,-,N/A,,Clear,180,2013-08-29 10:58:00
4:53 AM,66.2,66.2,100,29.88,2.5,East,2.3,-,N/A,,Clear,90,2013-08-29 11:53:00
4:58 AM,65.3,65.3,100,29.89,2.0,East,3.5,-,N/A,,Clear,90,2013-08-29 11:58:00
5:03 AM,66.2,66.2,100,29.89,2.0,ESE,2.3,-,N/A,,Clear,120,2013-08-29 12:03:00
5:08 AM,66.2,66.2,100,29.89,4.0,SSE,2.3,-,N/A,,Clear,160,2013-08-29 12:08:00
5:58 AM,64.8,64.8,100,29.89,10.0,WSW,4.6,-,N/A,,Clear,240,2013-08-29 12:58:00
6:58 AM,65.8,65.8,100,29.92,10.0,Calm,Calm,-,N/A,,Scattered Clouds,0,2013-08-29 13:58:00
7:58 AM,72.0,63.7,75,29.92,10.0,Calm,Calm,-,N/A,,Partly Cloudy,0,2013-08-29 14:58:00
8:58 AM,77.0,57.6,51,29.93,10.0,Variable,2.3,-,N/A,,Partly Cloudy,0,2013-08-29 15:58:00
9:58 AM,83.8,50.5,31,29.92,10.0,WNW,5.8,-,N/A,,Partly Cloudy,300,2013-08-29 16:58:00
10:55 AM,88.5,50.7,27,29.92,10.0,WNW,5.8,-,N/A,,Partly Cloudy,290,2013-08-29 17:55:00
11:58 AM,87.4,55.6,34,29.91,10.0,SSW,10.4,-,N/A,,Scattered Clouds,200,2013-08-29 18:58:00
12:58 PM,89.8,53.8,29,29.90,10.0,SSW,9.2,-,N/A,,Scattered Clouds,210,2013-08-29 19:58:00
1:58 PM,89.6,54.7,30,29.89,10.0,South,8.1,-,N/A,,Scattered Clouds,170,2013-08-29 20:58:00
2:58 PM,94.6,54.5,26,29.88,10.0,South,9.2,-,N/A,,Scattered Clouds,190,2013-08-29 21:58:00
3:58 PM,95.0,57.0,28,29.87,10.0,South,9.2,-,N/A,,Scattered Clouds,170,2013-08-29 22:58:00
4:58 PM,89.6,58.8,35,29.87,10.0,South,5.8,-,N/A,,Scattered Clouds,180,2013-08-29 23:58:00
5:58 PM,87.6,55.4,33,29.87,10.0,WSW,6.9,-,N/A,,Mostly Cloudy,240,2013-08-30 00:58:00
6:58 PM,86.5,49.3,28,29.88,10.0,WNW,4.6,-,N/A,,Scattered Clouds,300,2013-08-30 01:58:00
7:58 PM,77.2,59.0,53,29.91,10.0,SSE,3.5,-,N/A,,Scattered Clouds,160,2013-08-30 02:58:00
8:58 PM,73.2,61.0,65,29.92,10.0,South,3.5,-,N/A,,Scattered Clouds,190,2013-08-30 03:58:00
9:58 PM,71.2,63.5,76,29.92,10.0,South,2.3,-,N/A,,Scattered Clouds,180,2013-08-30 04:58:00
10:58 PM,72.3,64.6,77,29.92,10.0,Calm,Calm,-,N/A,,Partly Cloudy,0,2013-08-30 05:58:00
11:58 PM,71.4,64.4,78,29.93,10.0,SW,1.2,-,N/A,,Clear,230,2013-08-30 06:58:00